This is the latest recevied weather packets stored in our database for station/object K1RFS. If no packets are shown the sender has not sent any weather packets the latest 10 day(s).
| Time | Temp. | Humidity | Pressure | Rain* | Wind** | Luminosity | Snow |
|---|---|---|---|---|---|---|---|
| 1777928748 | 18.89° C | 37% | 993.6 hPa | 0 mm | - | 64 W/m² | - |
| 1777928445 | 18.89° C | 36% | 993.8 hPa | 0 mm | - | 61 W/m² | - |
| 1777928143 | 18.89° C | 36% | 993.8 hPa | 0 mm | - | 64 W/m² | - |
| 1777927841 | 20° C | 28% | 993.6 hPa | 0 mm | - | 71 W/m² | - |
| 1777927538 | 20° C | 28% | 993.5 hPa | 0 mm | - | 81 W/m² | - |
| 1777927237 | 20° C | 29% | 993.6 hPa | 0 mm | - | 93 W/m² | - |
| 1777926935 | 19.44° C | 30% | 993.4 hPa | 0 mm | - | 104 W/m² | - |
| 1777926632 | 19.44° C | 31% | 993.6 hPa | 0 mm | - | 109 W/m² | - |
| 1777926327 | 20° C | 32% | 993.8 hPa | 0 mm | - | 113 W/m² | - |
| 1777926024 | 20° C | 32% | 993.6 hPa | 0 mm | - | 112 W/m² | - |
| 1777925721 | 20° C | 31% | 993.6 hPa | 0 mm | - | 108 W/m² | - |
| 1777925419 | 20.56° C | 30% | 993.6 hPa | 0 mm | - | 106 W/m² | - |
| 1777925115 | 21.11° C | 29% | 993.6 hPa | 0 mm | - | 105 W/m² | - |
| 1777924812 | 21.11° C | 29% | 993.6 hPa | 0 mm | - | 109 W/m² | - |
| 1777924508 | 20.56° C | 29% | 993.5 hPa | 0 mm | - | 112 W/m² | - |
| 1777924205 | 20.56° C | 30% | 993.7 hPa | 0 mm | - | 114 W/m² | - |
| 1777923901 | 20.56° C | 29% | 993.7 hPa | 0 mm | - | 116 W/m² | - |
| 1777923597 | 21.11° C | 29% | 993.7 hPa | 0 mm | - | 112 W/m² | - |
| 1777923294 | 21.11° C | 29% | 994 hPa | 0 mm | - | 118 W/m² | - |
| 1777922993 | 21.11° C | 29% | 993.8 hPa | 0 mm | - | 128 W/m² | - |
| 1777922689 | 21.11° C | 29% | 993.8 hPa | 0 mm | - | 141 W/m² | - |
| 1777922389 | 21.11° C | 29% | 994 hPa | 0 mm | - | 140 W/m² | - |
| 1777922086 | 21.11° C | 29% | 993.8 hPa | 0 mm | - | 137 W/m² | - |
| 1777921781 | 21.11° C | 29% | 994 hPa | 0 mm | - | 149 W/m² | - |
| 1777921477 | 21.11° C | 29% | 994 hPa | 0 mm | - | 151 W/m² | - |
* Rain latest hour (hover to see other rain measurements)
** Current wind speed in m/s (hover to see current wind gust speed)